www.pogodaiklimat.ru

Погода и климат >> Архив погоды >> Россия >> Татарстан >> Казань


АРХИВ ПОГОДЫ в Казани

Время (UTC), дата Ветер
(напр.,м/с)
 
Видим.   Явления Облачность Т
(С)
Тd
(С)
f
(%)
Тe
(С)
Тes
(С)
Комфортность P
(гПа)
Po
(гПа)
Тmin
(С)
Tmax
(С)
R
(мм)
R24
(мм)
S
(см)
12 11.12 ЮВ 2 10 км слабый снег 10/0
[As op]
-6.7 -7.9 91 -11 -11 по сезону 1025.8 1010.3
15 11.12 ЮВ 2 10 км {снег} 10/0
[As op]
-6.2 -7.4 91 -11 -11 по сезону 1025.7 1010.2 -6.2 2
18 11.12 ЮВ 2 10 км слабый снег 10/8 600 м
[Sc As op]
-5.4 -6.6 91 -10 -10 по сезону 1024.6 1009.2
21 11.12 ЮВ 3 2000 м снег 10/0
[As op]
-3.6 -4.6 93 -9 -9 по сезону 1024.1 1008.8
00 12.12 ЮВ 2 10 км {снег} 10/0
[As op]
-3.2 -4.2 93 -7 -7 по сезону 1023.7 1008.5
03 12.12 ЮВ 3 10 км 10/0
[As op]
-3.3 -4.4 92 -9 -9 по сезону 1023.8 1008.5 -6.2 3 26
06 12.12 ЮВ 2 10 км 10/0
[As op]
-3.1 -4.1 93 -7 -7 по сезону 1025.0 1009.7
09 12.12 ЮВ 3 10 км {снег} 10/0
[As op]
-3.0 -4.1 92 -8 -8 по сезону 1025.1 1009.8
12 12.12 ЮВ 4 2000 м слабый ливневой снег 10/10 300 м
[Cb cap]
-3.1 -4.0 93 -9 -9 по сезону 1025.1 1009.9
15 12.12 ЮВ 3 2000 м метель {ливн. осадки, снег} 10/10 200 м
[Frnb Ns]
-3.2 -4.0 94 -9 -9 по сезону 1025.5 1010.2 -2.9 3
18 12.12 ЮВ 2 4000 м слабый снег {ливн. осадки} 10/0
[As op]
-3.2 -3.9 95 -7 -7 по сезону 1025.2 1009.9
21 12.12 ЮВ 2 10 км слабый снег 10/0
[As op]
-3.2 -3.9 95 -7 -7 по сезону 1025.6 1010.3
00 13.12 ЮВ 4 10 км слабый снег 10/10 600 м
[Sc]
-2.9 -3.7 94 -9 -9 по сезону 1025.3 1010.0
03 13.12 ЮВ 4 10 км позёмок {снег} 10/5 600 м
[Sc As op]
-3.2 -4.4 91 -9 -9 по сезону 1025.3 1010.0 -3.4 4 28
06 13.12 ЮВ 4 10 км позёмок {снег} 10/10 600 м
[Cb cap]
-3.5 -4.7 91 -10 -10 по сезону 1025.0 1009.7 -3.5
09 13.12 ЮВ 5-10
{12}
10 км позёмок {ливн. осадки, снег} 10/10 600 м
[Cb cap]
-3.3 -4.7 90 -10 -10 по сезону 1023.9 1008.7
12 13.12 ЮВ 4
{12}
10 км позёмок {ливн. осадки, снег} 10/10 300 м
[Cb cap]
-3.7 -4.8 92 -10 -10 по сезону 1023.1 1007.8
15 13.12 ЮВ 4
{11}
10 км слабый снег {метель} 10/10 300 м
[Cb cap]
-3.3 -4.4 92 -10 -10 по сезону 1022.3 1007.1 -3.2 2
18 13.12 ЮВ 4
{10}
10 км слабая переохл. морось (гололёд) {снег} 10/10 300 м
[St]
-2.8 -3.7 94 -9 -9 по сезону 1021.6 1006.4
21 13.12 Ю 2 10 км слабая переохл. морось (гололёд) 10/10 300 м
[St]
-1.8 -2.7 94 -6 -6 тепло 1021.5 1006.3
00 14.12 Ю 3 10 км слабая переохл. морось (гололёд) 10/10 300 м
[St]
-1.8 -2.8 93 -7 -7 тепло 1021.3 1006.2
03 14.12 ЮВ 2
{12}
10 км слабая переохл. морось (гололёд) 10/10 300 м
[St]
-1.7 -2.6 94 -6 -6 тепло 1021.8 1006.6 -3.3 0.7 24
06 14.12 ЮВ 2 10 км слабый снег {морось} 10/0
[As op]
-1.0 -1.7 95 -5 -5 тепло 1021.8 1006.7
09 14.12 Ю 3 10 км слабый переохл. дождь (гололёд) {снег} 10/0
[As op]
-0.3 -1.0 95 -5 -5 тепло 1021.9 1006.9
12 14.12 Ю 3
{12}
10 км слабый переохл. дождь (гололёд) {снег} 10/10 300 м
[St]
-0.4 -1.2 94 -5 -5 тепло 1022.5 1007.4
15 14.12 ЮЗ 2
{10}
10 км 10/10 300 м
[St]
-0.9 -2.1 92 -5 -5 тепло 1023.3 1008.2 -0.3 3
18 14.12 Ю 3
{12}
10 км 8/6 600 м
[Sc Ac trans]
-2.3 -5.3 80 -7 -7 тепло 1024.3 1009.0
21 14.12 ЮВ 4
{12}
10 км 10/6 600 м
[Sc Ac As]
-4.6 -8.3 75 -11 -11 по сезону 1025.0 1009.6
00 15.12 ЮВ 4
{10}
10 км 8/5 600 м
[Sc Ac trans]
-6.4 -9.7 77 -13 -13 по сезону 1025.1 1009.6
03 15.12 ЮВ 3-10
{14}
10 км 10/5 600 м
[Sc Ac As]
-7.3 -10.2 80 -13 -13 по сезону 1025.1 1009.6 -7.4 25
06 15.12 ЮВ 4
{13}
10 км 10/0
[Ac As]
-7.4 -10.2 80 -14 -14 по сезону 1026.1 1010.5 -7.4
09 15.12 ЮВ 3
{12}
10 км 10/0
[As op]
-7.1 -10.3 78 -13 -13 по сезону 1025.9 1010.4
12 15.12 ЮВ 3
{10}
10 км в посл. час снег 10/0
[Ac As]
-6.8 -8.8 86 -13 -13 по сезону 1026.7 1011.2
15 15.12 Ю 3
{10}
4000 м слабый снег 10/10 300 м
[Frnb Ns]
-6.9 -9.2 84 -13 -13 по сезону 1028.2 1012.6 -6.6 0.2
18 15.12 ЮВ 3
{10}
10 км слабый снег 10/10 600 м
[Sc]
-6.9 -9.1 84 -13 -13 по сезону 1028.8 1013.3
21 15.12 ЮВ 3
{10}
10 км {снег} 10/10 600 м
[Sc]
-7.0 -10.9 74 -13 -13 по сезону 1029.4 1013.8
00 16.12 ЮВ 3
{12}
10 км {снег} 10/10 600 м
[Sc]
-8.4 -11.4 79 -14 -14 по сезону 1029.9 1014.2
03 16.12 ЮВ 3
{11}
10 км 10/5 600 м
[Sc As op]
-8.6 -11.8 78 -14 -14 по сезону 1029.6 1013.9 -8.7 0.0 25
06 16.12 ЮВ 3-10
{10}
10 км 10/3 600 м
[Sc As op]
-9.2 -12.6 76 -15 -15 по сезону 1029.9 1014.2 -9.2
09 16.12 ЮВ 5-10
{12}
10 км 10/0
[Ac As]
-8.5 -12.3 74 -16 -16 по сезону 1029.3 1013.6
12 16.12 Ю 3
{10}
10 км слабый снег {метель} 10/0
[As op]
-7.3 -9.9 82 -13 -13 по сезону 1030.0 1014.4
15 16.12 ЮВ 3 10 км {снег} 10/10 600 м
[Sc]
-6.8 -10.7 74 -12 -12 по сезону 1030.6 1015.0 -6.7 1
18 16.12 ЮВ 4
{10}
10 км 10/10 600 м
[Sc]
-6.8 -10.0 78 -13 -13 по сезону 1030.6 1015.0
21 16.12 ЮВ 3
{12}
10 км 10/10 600 м
[Sc]
-6.6 -10.3 75 -12 -12 по сезону 1031.2 1015.6
00 17.12 ЮВ 4
{10}
10 км 10/5 600 м
[Sc As op]
-8.7 -12.1 76 -15 -15 по сезону 1031.7 1015.9
03 17.12 ЮВ 3
{10}
10 км 10/0
[Ac As]
-9.6 -12.4 80 -15 -15 по сезону 1031.1 1015.3 -9.8 24
06 17.12 ЮВ 3-10
{10}
10 км 10/8 1000 м
[Sc Ac As]
-9.6 -12.6 79 -15 -15 по сезону 1031.0 1015.2
09 17.12 ЮВ 3
{13}
10 км 9/0
[Ac As]
-8.9 -12.2 77 -15 -14 по сезону 1029.9 1014.2
12 17.12 ЮВ 4-11
{11}
10 км 10/0
[Ac As]
-8.1 -11.7 75 -15 -15 по сезону 1028.9 1013.3
15 17.12 ЮВ 4-10
{12}
10 км 10/0
[Ac As]
-8.2 -11.7 76 -15 -15 по сезону 1028.5 1012.9 -7.9
18 17.12 ЮВ 4
{12}
10 км 8/0
[Ac trans]
-8.0 -11.6 75 -15 -15 по сезону 1028.4 1012.8
21 17.12 Ю 2
{11}
10 км 9/0
[Ac trans]
-8.4 -11.6 78 -13 -13 по сезону 1029.1 1013.4
00 18.12 ЮВ 3 10 км 10/0
[Cs]
-8.6 -12.3 75 -14 -14 по сезону 1029.5 1013.8
03 18.12 ЮВ 2 10 км 10/0
[Ac lent Ci fib]
-8.6 -12.2 75 -13 -13 по сезону 1030.1 1014.5 -8.7
06 18.12 ЮВ 2 10 км 10/0
[Ac As]
-8.9 -12.4 76 -13 -13 по сезону 1031.3 1015.6 -8.9

 

Местоположение метеостанции Казань (Татарстан, Россия): широта 55.73 долгота 49.20 высота над уровнем моря 119 м.

В архиве по умолчанию представлена погода в Казани за последнюю неделю. Архивные данные за месяц целиком и за предыдущие месяцы, начиная с января 2011 года, Вы можете получить, выбрав интересующий диапазон дат из раскрывающегося списка и нажав кнопку "Ввод!".

Внимание! Время в таблицах - всемирное. Для получения местного времени необходимо прибавить поправку, которая в Казани равна 3 ч.

Смотрите также архив погоды в соседних городах и на ближайших метеорологических станциях:

Погода в Лаишево (Татарстан, Россия) (40 км)
Погода в Вязовых (Татарстан, Россия) (44 км)
Погода в Арске (Татарстан, Россия) (57 км)
Погода в Больших Кайбицах (Татарстан, Россия) (74 км)
Погода в Морках (Марий-Эл, Россия) (79 км)
Погода в Тетюшах (Татарстан, Россия) (91 км)
Погода в Чистополе (Татарстан, Россия) (102 км)
Погода в Канаше (Чувашия, Россия) (111 км)
Погода в Чебоксарах (Чувашия, Россия) (123 км)
Погода в Батырево (Чувашия, Россия) (125 км)

Пояснения к столбцам:

Ветер - указаны скорость ветра в м/с - средняя за 10 мин, порывы в срок и между сроками (в фигурных скобках) и направление, откуда дует ветер: С - северный, СВ - северо-восточный, В - восточный, ЮВ - юго-восточный, Ю - южный, ЮЗ - юго-западный, З - западный, СЗ - северо-западный.
Видимость - горизонтальная дальность видимости в метрах или километрах. При видимости от 1 до 10 км при отсутствии осадков обычно наблюдается дымка, при ухудшении видимости до 1 км и менее - туман. В сухую погоду видимость может ухудшаться дымом, пылью или мглою.
Явления - указаны атмосферные явления, наблюдавшиеся в срок или в последний час перед сроком; фигурными скобками обозначены явления, наблюдавшиеся между сроками (за 1-3 часа до срока); квадратными скобками обозначены град или гололедные отложения с указанием их диаметра в мм.
Облачность - указаны через наклонную черту общая и нижняя облачность в баллах и высота нижней границы облаков в метрах; квадратными скобками обозначены формы облаков: Ci - перистые, Cs - перисто-слоистые, Cc - перисто-кучевые, Ac - высококучевые, As - высокослоистые, Sc - слоисто-кучевые, Ns - слоисто-дождевые, Cu - кучевые, Cb - кучево-дождевые. Подробнее классификацию облаков см. в Атласе облаков (PDF).
T - Температура воздуха - температура, измеренная на высоте 2 м над землей.
Td - Температура точки росы - температура, при понижении до которой содержащийся в воздухе водяной пар достигнет насыщения.
f - Относительная влажность воздуха - влажноcть воздуха, измеренная на высоте 2 м над землей.
Te - Эффективная температура - температура, которую ощущает одетый по сезону человек в тени. Характеристика душности погоды. При расчете учитывается влияние влажности воздуха и скорости ветра на теплоощущения человека.
Tes - Эффективная температура на солнце - температура, которую ощущает человек, с поправкой на солнечный нагрев. Характеристика знойности погоды. Зависит от высоты солнца над горизонтом, облачности и скорости ветра. Ночью, в пасмурную погоду, а также при ветре 12 м/с и более поправка равна нулю.
P - Атмосферное давление - приведенное к уровню моря атмосферное давление.
Po - Атмосферное давление - измеренное на уровне метеостанции атмосферное давление.
Tmin - Минимальная температура - минимум температуры воздуха на высоте 2 м над землей.
Tmax - Максимальная температура - максимум температуры воздуха на высоте 2 м над землей.
R - Количество осадков - Количество выпавших осадков за период времени, мм. При наведении курсора мыши на число - период времени, за который выпало указанное количество осадков.
R24 - Количество осадков - Количество выпавших осадков за 24 часа, мм.
S - Снежный покров - Высота снежного покрова, см. При наведении курсора мыши на число - состояние снежного покрова и степень покрытия местности в баллах.